Wind_Speed
37 37 37 38 38 39 39 39 40 39 39 38 38 38 39 40 41 42 43 43 43 43 44 44 44 44 44 44 45 46 47 49 51 52 54 55 57 59 60 62 63 63 64 64 64 65 66 67 68 70 70 69 67 68 69 71 72 74 74 75 76 77 79 81 83 85 86 87 87 88 89 89 89 89 88 87 87 87 88 89 90 91 90 89 89
38 38 38 39 39 39 39 40 40 40 39 38 39 39 41 42 43 43 43 43 43 43 43 44 44 44 44 44 45 46 48 50 51 53 55 57 58 60 61 62 63 63 63 64 64 66 66 67 68 69 69 69 69 69 71 73 74 76 76 76 77 78 80 82 84 86 86 87 88 89 90 90 89 89 89 89 89 89 89 90 91 91 90 90 90
40 40 41 41 40 39 39 40 40 40 40 40 41 42 44 44 45 44 43 43 43 43 43 43 44 44 44 45 46 48 49 50 52 54 56 58 59 60 61 62 63 63 64 65 67 67 67 68 68 69 70 71 71 72 74 75 76 77 77 77 78 80 81 84 85 86 86 87 89 89 89 89 89 89 89 89 89 90 90 90 91 90 90 90 89
42 43 43 42 41 40 40 40 41 41 42 42 44 45 46 46 46 45 44 44 43 43 44 44 44 44 45 46 48 49 50 51 53 55 57 59 60 61 62 63 63 64 66 68 69 68 68 68 68 71 73 73 73 74 76 77 77 78 79 80 80 81 83 85 86 87 87 88 88 88 88 89 88 89 89 89 89 90 90 90 90 90 89 89 89
43 44 43 43 42 42 42 42 43 43 44 45 45 46 47 47 47 46 45 44 44 44 45 45 45 46 46 48 49 50 51 52 54 56 58 59 61 62 63 64 65 67 69 69 69 69 69 68 69 72 74 74 74 76 77 78 78 80 81 82 82 83 84 86 87 88 88 88 87 87 87 87 87 88 89 89 90 90 90 90 90 89 89 89 88
43 44 44 44 44 44 44 44 44 44 45 46 46 47 47 47 47 47 46 46 46 46 46 46 47 47 48 49 50 51 52 53 55 57 59 60 61 63 64 65 67 69 70 70 70 69 68 68 70 71 72 74 77 78 79 80 81 83 84 83 83 84 86 88 89 89 89 88 87 86 85 86 86 87 88 89 89 90 90 90 90 90 89 88 87
44 44 45 45 44 44 44 44 44 45 45 46 47 47 48 48 48 47 47 47 47 47 47 48 48 49 50 51 51 52 53 55 56 58 59 60 61 62 65 67 68 69 70 71 70 69 68 69 70 71 74 76 78 79 81 83 84 85 85 84 85 86 88 90 90 89 89 87 86 84 84 85 86 86 87 88 89 90 91 91 90 90 89 86 83
45 45 45 44 44 45 45 45 45 46 47 47 48 48 48 48 48 48 48 48 48 49 49 50 51 52 52 52 53 54 55 56 57 58 60 61 62 64 66 67 68 70 71 72 72 72 72 72 73 75 76 77 78 81 83 85 86 85 84 85 87 89 90 91 90 89 88 86 84 83 83 84 85 86 87 89 89 90 91 92 90 88 86 83 80
46 46 45 45 46 46 47 46 46 47 48 48 48 48 49 49 49 49 49 49 50 50 51 52 53 54 54 54 54 54 55 56 57 59 61 63 64 65 67 68 71 72 74 75 77 78 77 77 76 75 75 77 79 82 84 86 86 85 85 87 89 91 91 90 89 88 86 84 82 82 83 83 84 86 88 89 90 90 92 92 89 84 82 80 80
47 46 46 47 47 48 48 48 48 48 48 48 49 49 49 49 49 50 50 51 51 52 53 54 55 56 56 56 56 55 55 56 59 61 62 64 65 67 69 71 72 73 75 78 80 80 79 77 74 74 76 79 82 84 85 86 85 86 88 90 91 91 90 88 87 85 84 83 82 82 83 83 85 87 89 90 90 91 90 88 84 81 80 81 81
47 47 47 47 47 47 48 48 48 48 49 49 49 49 50 50 51 51 51 52 53 54 54 55 55 55 56 55 55 55 55 57 60 62 63 65 67 68 69 71 71 72 74 76 77 78 77 73 72 75 79 82 84 85 85 85 86 88 90 90 91 90 88 85 84 83 83 81 81 82 84 85 86 88 89 89 90 89 85 82 80 80 81 82 81
47 47 46 45 46 46 47 47 48 49 49 50 50 50 51 51 51 51 52 52 53 53 53 53 53 54 53 53 53 54 56 58 60 62 64 66 67 68 69 69 70 70 71 72 75 77 76 73 75 79 82 83 85 85 85 87 88 89 90 90 89 87 84 82 82 82 81 81 82 84 86 87 88 89 88 87 85 83 80 79 81 82 83 83 82
46 45 44 44 44 45 46 47 48 49 50 50 50 50 50 51 51 51 51 51 51 51 51 51 52 51 51 52 53 55 57 59 61 63 65 66 67 68 67 67 67 68 70 73 76 77 77 77 80 82 83 84 85 85 87 88 89 89 89 89 86 83 80 80 80 81 82 83 85 86 87 88 89 87 84 82 80 79 80 81 82 83 84 84 83
44 44 43 43 44 44 46 47 48 49 49 50 50 50 50 50 49 49 48 48 49 50 50 50 49 50 51 52 54 56 58 60 62 64 66 68 68 68 67 68 69 70 72 74 76 77 78 80 83 85 85 85 86 87 88 88 87 88 87 84 81 78 78 79 81 82 83 85 87 88 88 88 86 81 78 78 78 80 82 83 83 84 85 84 84
42 42 42 42 43 44 45 46 47 47 47 47 47 47 47 47 46 46 47 48 48 47 47 47 48 49 51 53 55 56 59 61 63 64 66 68 69 69 70 71 72 72 72 72 74 76 79 83 85 87 87 86 87 87 87 86 85 83 80 78 77 77 79 81 82 83 85 87 89 88 85 82 79 77 77 79 80 82 83 84 85 86 86 86 87
43 43 43 43 43 44 44 45 45 45 45 45 45 45 45 45 45 45 46 45 44 44 45 47 48 50 52 54 56 58 60 62 63 64 66 68 69 70 72 72 72 70 69 70 73 77 81 85 87 87 87 87 87 87 85 83 80 77 76 76 78 80 81 82 83 85 87 88 87 84 81 79 78 79 80 82 84 85 86 87 87 88 89 90 90
47 46 46 45 45 45 44 45 45 45 45 44 44 44 44 44 43 43 43 43 44 45 47 48 50 52 53 55 57 59 62 63 63 64 66 68 70 70 71 70 69 67 68 72 76 80 83 86 86 86 85 85 84 82 80 77 75 75 77 79 81 83 83 82 84 86 86 85 83 81 80 80 81 82 83 85 86 88 91 91 90 91 92 92 91
52 50 49 48 47 47 46 46 46 45 45 44 44 43 42 42 42 42 43 45 47 48 50 51 52 53 55 57 59 61 63 63 64 65 66 68 70 70 70 70 69 70 73 77 80 81 83 83 83 83 82 81 78 76 74 75 76 78 81 83 85 84 82 82 83 83 82 81 81 81 82 82 82 84 85 86 88 90 93 94 93 94 94 93 91
54 53 52 51 50 49 48 48 47 46 45 44 44 43 43 43 43 45 47 49 50 51 52 54 54 55 57 58 60 62 63 63 64 65 66 67 69 69 69 70 72 75 77 79 80 80 80 80 80 79 77 75 73 73 75 78 81 83 84 85 84 82 80 81 82 81 81 82 82 82 83 83 84 86 87 88 89 91 93 94 94 94 94 92 90
54 53 52 52 51 50 50 49 48 47 46 45 45 45 45 46 47 49 50 52 53 54 55 56 57 57 58 60 61 63 64 63 63 65 67 68 69 70 72 74 76 77 77 77 76 76 77 77 75 74 72 72 73 76 79 82 83 84 83 83 82 80 80 82 83 83 84 84 84 85 86 86 87 88 89 90 91 92 92 92 92 91 91 90 88
54 54 53 53 52 52 51 50 49 49 48 47 47 47 48 49 50 52 53 55 55 57 57 58 59 59 60 62 63 64 65 64 65 67 68 69 70 72 73 74 74 73 73 74 74 75 74 73 72 72 73 75 78 80 82 82 82 82 81 81 82 82 83 83 84 85 86 86 87 88 88 88 89 90 91 92 92 91 91 90 89 88 87 87 87
56 56 55 55 54 54 53 52 51 50 50 50 50 50 51 52 53 55 56 57 58 58 59 59 60 61 62 63 64 65 65 66 67 67 67 68 69 70 70 71 72 73 74 75 74 73 72 72 73 75 78 79 80 80 80 81 81 81 82 82 83 84 85 85 86 86 87 88 89 89 90 91 92 93 93 92 91 89 88 87 86 85 84 84 84
59 58 58 57 56 55 54 54 53 53 53 53 53 54 54 55 56 56 57 58 59 60 60 60 61 62 63 64 66 66 67 67 67 67 68 68 69 70 71 73 74 75 74 73 73 73 74 76 79 80 81 81 81 80 81 81 82 82 83 83 84 85 86 87 88 88 89 90 91 92 93 94 94 94 93 91 89 87 85 84 83 82 82 81 81
61 60 60 59 58 57 56 56 56 56 56 56 56 56 56 57 57 58 58 59 60 60 61 61 62 63 64 65 66 67 68 68 68 67 67 67 67 68 69 71 72 73 73 74 76 79 81 83 83 83 82 82 81 82 82 83 83 84 84 84 85 86 87 88 89 90 91 93 94 95 95 95 95 93 91 88 86 85 83 82 81 81 80 80 80
63 62 62 61 60 59 58 58 58 58 57 57 57 57 57 57 58 59 59 59 60 60 61 61 62 63 65 66 66 67 67 66 65 64 63 64 65 67 69 71 73 75 78 80 82 83 84 84 83 82 82 82 82 82 83 83 84 84 85 85 86 87 88 89 91 92 94 95 96 96 95 94 92 90 87 85 83 82 81 80 80 80 80 80 80
65 65 64 64 63 62 61 60 60 59 59 59 59 59 59 60 61 61 61 61 61 61 61 62 63 64 65 65 65 65 64 63 62 62 63 65 66 69 71 73 75 77 79 81 82 82 82 82 81 81 81 81 81 82 82 83 83 84 85 86 87 88 89 91 93 94 95 96 95 94 93 90 88 86 84 82 81 81 80 80 80 80 80 80 80
69 69 68 66 65 64 63 62 61 60 60 61 61 61 61 62 62 61 61 61 61 61 62 63 64 64 64 64 64 64 64 63 63 64 65 66 68 70 72 74 76 78 79 79 79 79 79 79 79 79 79 80 80 81 81 82 83 84 85 86 88 89 91 92 94 95 95 95 93 91 89 87 85 83 82 82 81 81 81 81 81 80 80 81 81
71 70 69 67 65 64 63 62 61 60 60 60 60 60 60 60 59 59 59 60 60 61 62 63 64 65 65 65 65 65 65 64 65 65 66 68 70 71 73 74 75 76 76 76 76 76 77 77 77 78 78 78 79 80 80 81 82 84 86 88 90 91 92 93 94 94 94 92 90 88 86 84 83 83 82 82 82 82 82 82 82 81 81 82 82
69 68 68 66 64 62 60 58 57 57 57 57 57 57 57 58 58 59 59 60 61 62 63 64 65 65 65 65 65 64 65 65 66 67 68 69 70 71 72 72 72 73 73 73 74 74 75 75 75 76 76 77 78 78 79 81 83 85 87 89 91 92 93 93 93 92 91 89 86 85 84 83 83 83 83 82 82 82 81 81 81 81 81 82 82
65 63 61 60 57 56 54 54 54 54 54 55 55 56 56 57 58 59 60 61 62 63 64 64 64 64 64 64 64 64 65 66 66 67 68 68 69 69 69 70 70 71 71 72 72 73 73 74 74 75 75 76 76 77 79 81 83 85 87 88 90 91 91 91 90 88 86 84 83 82 83 83 83 82 82 81 81 80 80 80 80 80 80 80 80
55 54 52 51 51 51 51 52 52 53 53 54 55 56 57 58 58 59 60 61 62 62 63 63 63 63 64 64 65 65 66 66 67 67 68 68 68 68 68 68 69 70 70 71 71 72 72 72 73 73 74 75 76 77 79 80 82 84 86 88 89 90 90 89 86 84 82 81 81 82 82 82 82 81 80 80 80 79 79 79 78 78 78 78 78
49 49 49 49 50 50 50 51 51 52 53 54 55 56 57 58 59 60 60 61 61 62 62 63 63 64 65 65 66 67 67 67 67 67 67 67 66 66 67 67 68 69 70 70 70 71 71 72 73 74 75 76 77 78 79 81 83 85 87 88 89 89 88 86 83 81 80 80 81 81 81 81 80 80 79 79 79 78 78 78 78 77 77 76 75
48 48 49 49 49 50 50 51 52 53 54 55 56 57 58 59 60 60 61 61 62 63 63 64 64 65 66 66 66 66 66 66 66 65 65 65 65 66 66 67 68 68 69 70 70 71 72 73 74 75 76 76 77 78 79 81 83 86 87 88 88 87 85 83 80 80 80 80 81 81 80 80 79 78 78 78 77 77 76 76 76 75 73 72 70
49 49 49 49 50 50 51 51 53 54 54 55 56 57 58 59 60 61 62 62 63 64 64 64 65 65 65 65 65 64 64 63 63 63 64 64 65 66 66 67 68 69 70 70 71 72 73 74 75 75 76 76 76 77 79 81 84 86 88 88 88 86 83 80 80 80 80 80 80 79 79 78 77 76 76 75 75 74 74 72 71 69 68 67 66
50 50 50 51 51 52 52 53 54 55 55 57 58 59 60 61 61 62 63 64 64 64 64 64 64 64 63 63 62 62 62 62 62 63 63 64 65 66 67 67 68 69 70 71 72 72 73 74 75 75 75 75 76 78 80 82 85 87 88 88 87 84 81 80 80 81 80 80 79 77 76 75 75 74 73 72 71 70 68 67 65 64 64 64 64
51 52 52 52 53 53 54 54 55 56 57 58 59 60 61 62 63 64 64 64 63 63 63 63 62 62 61 61 60 61 61 62 62 63 64 64 65 66 67 68 69 69 70 71 71 72 73 74 74 74 75 75 77 79 81 83 86 88 88 88 85 82 81 81 81 81 80 78 76 75 73 72 71 70 69 67 65 63 62 62 61 61 61 61 61
52 52 53 53 54 55 56 57 58 59 59 60 61 62 63 63 64 63 63 62 62 62 61 61 61 60 60 60 60 61 61 62 62 63 64 65 66 66 67 68 68 69 70 70 71 72 73 74 74 74 75 76 77 79 82 84 87 88 89 87 85 82 81 81 81 79 78 75 73 72 70 69 67 66 63 61 58 57 58 59 59 59 59 59 59
52 53 54 55 56 57 58 59 60 61 62 62 63 63 63 63 62 61 61 60 60 60 60 60 59 59 59 60 61 61 62 62 63 63 64 65 66 66 67 67 67 68 69 70 71 72 73 74 74 74 75 77 78 80 83 85 88 89 89 87 84 82 82 81 80 78 75 72 70 68 66 65 63 60 56 53 53 54 56 57 57 57 57 56 55
55 56 57 58 59 60 61 62 62 63 63 63 63 62 61 60 60 59 59 59 59 59 59 59 59 59 60 60 61 61 62 62 63 63 64 64 65 65 65 65 66 67 69 70 71 73 73 74 74 75 76 78 80 82 84 87 89 90 90 88 84 83 82 80 78 75 72 69 67 65 62 60 57 53 49 48 50 52 54 55 55 55 53 52 50
58 59 60 61 61 62 62 63 63 62 62 62 61 60 59 59 58 58 58 58 58 58 58 59 59 60 60 61 61 61 61 62 62 62 63 63 63 63 64 65 66 68 69 71 72 73 74 74 75 76 78 79 81 83 85 88 90 92 91 88 85 83 82 78 75 71 68 65 63 60 58 55 50 46 44 46 48 50 51 52 52 50 48 46 45
61 61 62 62 63 63 62 62 62 61 61 60 60 59 58 58 58 58 58 58 58 58 58 59 59 60 60 60 60 60 61 61 61 61 61 62 62 63 64 65 67 68 70 71 72 73 74 75 76 77 79 80 82 84 86 89 91 93 92 88 85 83 80 75 71 67 64 61 59 56 53 48 44 41 42 45 47 47 48 48 47 45 42 41 39
62 63 63 63 63 62 61 60 60 59 59 59 58 57 57 57 57 58 58 58 58 58 58 59 59 59 59 59 60 60 60 60 60 60 61 61 62 64 65 66 68 69 71 72 73 74 75 76 77 79 80 81 83 85 87 89 92 93 92 88 84 81 77 72 67 63 60 57 55 52 48 42 39 39 41 43 44 44 44 44 42 39 37 35 33
64 63 62 61 60 59 58 58 58 57 57 57 57 57 57 57 57 58 58 58 58 58 58 58 58 58 58 59 59 59 59 59 60 61 61 62 63 65 66 68 69 70 72 73 74 75 76 77 78 80 81 82 84 86 87 90 92 93 91 86 82 78 73 68 63 60 57 54 51 48 42 37 36 37 40 41 42 41 40 39 37 34 32 31 28
61 60 59 58 57 56 56 56 56 56 56 56 57 57 57 57 57 57 57 57 57 57 57 57 57 58 58 59 59 59 59 60 61 62 63 64 65 66 68 69 71 72 73 74 75 76 78 79 80 81 82 83 85 86 88 90 92 92 88 83 79 74 69 64 60 57 53 51 48 44 38 33 33 35 37 38 39 38 36 34 33 30 29 27 26
56 56 55 55 55 55 55 56 56 56 56 57 57 57 57 57 57 57 57 56 56 56 57 57 58 59 59 59 59 60 60 61 62 63 65 66 67 68 69 71 72 73 74 75 77 78 79 80 81 82 83 84 85 87 88 90 91 89 85 80 75 70 65 60 57 54 50 48 45 40 34 31 31 33 34 35 36 34 32 31 29 27 26 25 24
53 54 54 54 54 55 56 56 56 57 57 57 57 57 57 57 57 56 56 56 56 56 57 58 59 59 60 60 60 61 62 63 64 66 67 68 69 70 71 73 74 75 76 77 78 79 80 81 82 83 84 85 86 87 88 90 90 86 81 75 70 66 61 57 54 51 48 45 42 37 31 29 30 31 31 32 32 30 29 28 26 25 24 22 21
53 53 54 54 55 56 56 57 57 57 57 57 57 57 57 57 57 56 56 56 57 57 59 59 60 60 61 61 62 63 64 66 67 68 69 70 71 72 73 74 75 76 77 78 79 80 80 81 83 83 84 85 86 87 88 89 87 83 77 71 66 61 57 54 51 48 45 43 40 34 30 28 28 28 29 29 28 27 26 25 24 23 22 20 19
54 54 55 56 56 57 57 57 57 58 57 57 57 57 57 57 57 57 57 57 58 59 60 61 62 62 63 64 64 66 67 68 70 70 71 72 73 74 75 76 77 77 78 79 80 81 81 82 83 84 84 85 86 87 88 87 84 78 73 67 62 57 54 51 49 46 43 41 37 32 29 27 26 26 26 27 26 25 24 24 22 21 21 19 18
55 56 56 57 57 57 57 57 57 57 57 57 57 57 57 57 57 58 58 59 60 61 63 64 64 65 65 66 67 68 69 71 72 72 73 74 74 75 76 77 78 78 79 80 81 82 82 83 83 84 85 85 86 87 86 84 79 74 69 63 58 54 50 48 46 44 42 39 36 31 28 27 26 25 25 25 24 23 23 22 21 20 20 18 17
56 56 56 57 57 57 57 57 57 57 57 57 57 57 58 58 59 60 61 61 63 64 66 66 66 67 68 69 70 71 72 73 74 74 75 75 76 77 77 78 79 80 81 82 82 83 83 83 84 84 85 85 86 85 83 79 75 70 65 60 55 51 48 46 44 42 40 38 34 30 28 27 26 25 24 24 23 22 21 20 19 19 18 17 15
55 56 56 56 56 56 57 57 57 57 57 57 57 58 59 60 61 62 63 64 66 67 68 68 68 69 70 71 72 73 75 75 75 75 76 76 77 78 79 79 80 81 82 83 83 84 84 84 84 85 85 85 84 82 78 74 70 65 61 56 52 49 46 44 43 41 39 37 34 30 28 27 26 25 24 24 23 22 20 19 18 17 16 15 14
Wind_Direction
275 276 277 277 276 276 276 276 277 278 278 278 278 280 283 284 284 284 283 283 283 283 283 283 283 282 282 283 283 283 284 284 284 284 285 285 285 286 286 287 289 290 292 293 294 295 295 296 296 297 299 300 300 299 299 299 300 300 301 302 303 304 304 304 305 305 304 304 304 305 306 306 306 306 306 307 307 307 307 308 308 308 308 309 309
274 276 278 278 277 276 276 277 278 278 278 278 280 282 284 285 285 285 284 283 283 283 283 283 283 283 283 284 284 284 284 284 284 284 285 285 286 286 287 289 290 292 293 294 294 294 295 296 297 299 300 301 299 298 298 300 301 301 302 303 303 303 304 304 304 303 303 303 304 304 304 304 305 305 306 306 306 306 306 307 307 308 308 308 309
274 276 279 279 278 277 278 279 279 279 279 279 281 283 284 285 285 285 284 283 282 282 282 282 282 283 284 284 284 284 284 284 284 284 285 285 286 287 289 290 291 292 293 293 293 293 294 296 297 299 301 300 298 298 299 300 301 301 302 302 302 303 303 303 302 302 302 302 302 302 303 304 304 304 305 305 305 305 306 306 307 308 308 308 309
274 277 279 278 278 279 279 280 280 280 279 279 280 282 284 284 285 284 283 282 281 281 281 282 283 284 284 284 284 283 284 284 285 285 286 286 287 288 289 290 291 292 292 292 292 292 294 296 298 300 300 299 298 298 299 300 300 301 302 302 302 302 302 301 301 301 301 301 301 301 302 302 303 303 303 303 304 304 305 306 307 307 308 308 309
275 277 278 278 279 279 279 279 279 279 279 279 280 281 282 283 283 283 283 282 280 280 281 282 283 284 284 284 284 284 284 285 285 286 286 286 287 288 289 290 291 291 290 290 291 292 294 296 298 298 298 298 298 298 299 299 300 301 301 300 300 300 300 300 300 300 300 300 300 301 301 301 301 302 302 302 303 303 304 305 306 307 308 308 309
277 277 278 278 278 278 278 278 278 278 278 278 279 280 281 282 282 281 281 280 280 280 281 282 283 283 283 283 284 285 285 285 285 285 285 286 287 288 289 289 290 289 289 289 291 292 294 295 296 296 296 296 297 298 298 298 299 299 298 298 298 298 299 299 299 300 300 299 299 299 299 300 301 301 301 301 302 303 304 305 306 307 307 308 308
278 278 277 276 276 276 276 276 276 277 277 278 278 279 280 280 280 279 278 278 278 279 280 282 282 282 283 283 284 284 284 284 285 285 286 287 288 288 288 288 288 288 288 288 289 291 293 294 294 294 295 296 297 297 297 297 297 296 296 296 297 297 298 299 299 299 299 299 298 298 298 299 300 300 300 301 302 303 304 305 306 307 306 307 307
277 276 275 274 274 274 274 275 275 276 276 276 277 277 278 278 277 277 277 277 278 279 280 281 282 283 284 284 284 283 283 284 284 285 285 285 286 287 287 287 288 288 289 289 290 291 291 292 292 294 295 296 297 296 296 295 294 294 294 295 296 297 298 299 299 298 298 297 297 297 298 299 299 299 300 301 302 303 304 305 306 306 306 307 309
275 274 273 273 273 274 274 274 274 274 274 275 275 276 276 276 276 275 276 276 278 279 281 282 283 284 284 283 282 282 282 283 284 283 284 285 286 287 287 287 288 289 291 292 291 290 290 291 292 294 295 296 295 294 293 292 292 293 293 294 295 297 298 298 298 297 297 296 297 297 298 299 299 299 300 302 303 304 305 305 305 305 306 309 311
276 274 272 272 273 274 274 274 274 274 274 274 274 275 275 275 275 275 276 277 279 281 282 283 284 284 283 283 283 282 282 282 283 283 284 285 286 287 287 288 288 290 292 292 292 291 291 292 293 295 295 294 293 291 291 291 292 292 292 294 295 296 297 297 297 296 296 296 297 298 298 299 299 300 301 303 304 304 304 304 305 307 309 310 311
276 274 273 273 273 274 274 274 274 274 274 274 274 275 275 275 275 276 277 278 280 281 282 283 284 284 284 284 284 284 283 284 284 284 285 285 286 286 287 287 288 291 292 293 293 293 292 293 294 294 293 291 290 290 290 290 290 291 292 294 295 296 296 296 296 295 296 296 297 298 298 299 300 301 303 304 304 304 304 305 307 309 310 311 311
274 273 273 273 273 273 273 273 273 273 273 274 274 274 275 275 276 277 278 279 280 281 282 283 283 284 284 285 284 283 284 284 284 284 284 285 286 286 287 288 289 291 292 293 292 292 292 292 292 291 290 289 289 289 289 289 290 291 292 294 295 296 296 295 295 295 296 297 297 298 299 300 302 303 304 303 303 304 306 308 309 310 310 311 311
273 273 273 272 272 271 271 271 271 271 271 272 273 273 274 275 276 277 278 279 280 281 281 282 282 283 284 283 282 282 283 283 283 284 284 285 286 286 287 288 289 290 291 291 292 293 292 290 289 288 287 287 287 288 288 289 290 291 293 294 295 296 295 295 295 296 296 297 298 299 301 302 303 304 303 303 305 307 308 309 309 309 310 310 310
274 273 273 272 271 270 270 270 270 270 270 271 272 273 274 274 275 276 277 278 279 279 280 281 282 283 283 283 283 283 283 283 284 284 285 285 287 287 288 290 291 291 291 292 293 293 291 288 287 286 286 286 287 287 288 288 290 292 293 294 295 294 294 295 295 296 298 299 300 301 302 303 304 304 305 306 308 309 308 309 309 309 309 309 308
276 275 274 273 273 272 271 271 271 271 271 271 272 272 273 273 274 275 276 277 278 279 280 281 283 284 285 285 285 284 284 284 284 285 286 286 287 288 289 290 292 292 293 294 293 290 287 286 286 285 286 287 287 288 288 289 291 292 293 294 294 294 294 295 296 297 299 300 301 302 304 304 305 307 308 308 308 308 308 308 309 309 308 307 307
280 279 277 276 276 275 274 274 273 273 272 272 272 272 272 273 274 275 275 276 277 279 281 283 285 286 287 287 287 286 285 285 285 286 287 288 288 288 289 290 291 292 292 290 288 286 286 286 285 286 287 287 287 288 289 290 292 293 293 293 293 293 295 297 298 299 300 300 302 304 306 307 308 309 309 308 308 308 308 308 308 308 306 306 307
283 282 281 280 279 278 278 277 276 275 275 274 274 273 272 273 273 273 273 274 276 280 283 286 287 288 288 287 287 286 285 286 287 287 287 287 288 288 288 290 291 290 287 285 285 286 287 286 286 286 287 287 287 289 290 291 292 292 292 292 293 295 298 299 300 300 302 303 306 307 308 309 309 308 309 309 309 308 307 308 308 306 305 306 306
284 284 283 283 282 281 280 279 278 277 276 275 273 272 271 270 270 271 273 275 279 282 285 288 289 289 289 288 287 286 286 287 287 285 284 284 285 286 287 287 286 285 284 285 286 286 285 285 285 286 286 287 288 289 290 291 291 292 293 294 296 299 300 300 301 303 305 307 308 309 309 309 309 308 309 309 308 308 307 307 307 306 305 305 305
283 283 282 282 282 281 280 279 278 277 275 273 271 270 269 269 270 273 276 278 282 285 287 289 291 291 290 289 288 288 287 287 286 285 284 284 285 285 285 284 285 285 285 285 285 284 284 284 285 286 287 288 289 290 290 291 292 294 296 298 300 302 302 303 305 307 307 308 308 308 308 308 308 308 308 308 307 307 306 306 306 305 305 304 304
281 281 281 281 280 280 280 278 277 275 272 270 269 269 269 271 273 276 279 282 284 287 289 291 292 292 292 291 290 289 289 287 285 284 283 283 284 284 283 284 284 284 283 283 283 284 284 285 286 287 288 289 289 290 291 293 295 297 300 302 303 305 305 306 307 307 307 307 308 307 308 308 307 307 307 307 307 306 305 305 304 303 303 303 302
280 280 280 280 280 280 279 277 275 273 270 269 269 269 271 273 276 279 282 284 286 288 290 292 293 293 293 292 291 290 289 287 284 283 283 283 283 283 283 283 283 283 283 284 285 285 285 286 287 288 288 289 291 293 295 297 300 302 304 305 306 307 307 307 307 307 307 307 307 307 307 307 307 307 306 306 306 305 304 303 302 301 301 300 300
280 280 280 280 280 279 277 276 274 272 270 269 270 271 274 276 279 281 283 286 288 290 292 293 293 294 293 293 292 290 288 286 285 285 285 284 284 283 284 284 285 285 286 286 286 286 286 286 287 288 290 293 295 298 300 302 304 305 306 306 306 306 306 307 307 307 307 307 307 307 307 307 307 306 306 305 305 304 303 302 301 300 300 299 299
278 278 279 278 278 277 275 274 272 271 270 270 271 274 276 278 280 283 285 287 289 291 292 293 294 294 294 293 292 290 288 286 285 284 284 283 283 284 284 284 284 284 284 284 285 286 287 288 290 292 295 297 299 301 303 304 305 305 306 306 306 306 306 306 306 306 306 307 307 307 307 307 306 306 305 305 304 303 303 302 301 300 300 299 299
276 277 276 276 275 274 273 272 270 269 269 270 272 275 277 279 281 284 286 288 290 291 293 294 294 294 293 292 290 288 287 286 285 285 285 285 284 284 283 282 283 283 284 285 287 288 290 291 294 296 298 299 301 302 303 303 304 305 305 305 306 306 306 306 306 306 307 307 308 307 307 307 306 306 306 305 304 304 303 302 301 300 300 299 299
275 275 274 274 273 272 270 269 268 268 269 271 273 275 278 280 282 284 287 289 290 292 293 294 293 293 291 290 288 287 287 287 287 286 285 283 282 282 282 283 284 285 286 287 288 289 291 293 295 297 298 299 300 301 302 303 303 304 305 305 305 305 306 306 306 307 307 308 308 307 307 307 306 306 306 305 304 304 303 302 301 300 300 299 298
274 274 273 272 271 270 268 267 267 268 269 271 274 276 278 281 283 285 287 289 291 292 293 293 292 291 290 289 288 287 287 287 286 285 283 283 282 283 283 284 285 286 286 287 288 290 292 293 295 296 298 299 300 301 302 303 304 305 305 305 305 305 306 306 307 308 308 308 308 308 307 307 306 306 305 304 304 303 302 301 300 300 299 298 298
273 273 271 270 269 268 267 267 268 269 271 273 276 278 280 282 284 286 288 290 291 291 291 290 289 288 287 286 286 286 286 286 286 285 285 285 284 284 284 284 285 286 287 288 289 291 292 294 295 297 299 300 302 303 304 304 305 305 305 305 305 306 306 307 308 308 308 308 308 308 307 307 306 305 305 304 303 302 301 301 300 300 299 298 298
271 269 268 267 266 266 266 267 269 272 274 277 279 281 283 284 286 288 289 290 290 289 288 287 286 285 285 285 285 285 285 285 285 285 285 285 285 285 285 285 286 287 288 289 291 293 294 296 298 300 301 302 303 304 305 305 305 305 305 305 306 307 308 308 309 309 309 309 308 308 308 307 306 305 304 304 303 302 302 301 301 301 300 299 299
268 267 266 265 265 266 268 270 273 275 278 280 282 284 286 287 288 289 289 289 288 287 285 285 284 284 284 284 285 285 285 285 285 285 285 285 285 285 286 287 288 289 291 292 294 296 298 299 301 302 303 304 304 305 305 305 305 306 306 307 308 309 309 310 310 310 310 309 308 308 307 307 306 305 304 304 303 303 302 302 301 301 300 299 299
264 264 264 266 267 270 273 275 277 279 281 283 284 286 286 287 287 287 286 286 285 284 283 283 283 283 283 284 284 285 285 285 285 285 286 286 286 287 288 290 291 293 295 296 298 299 300 301 302 303 304 305 305 305 306 306 307 307 308 309 310 310 311 311 311 310 309 308 308 307 307 306 305 304 304 303 302 302 301 301 300 300 299 299 298
264 266 268 271 274 276 278 280 281 282 283 284 285 285 285 285 284 284 283 283 283 282 282 283 283 284 284 285 285 286 286 286 287 287 288 288 289 291 292 294 295 296 297 299 300 301 302 302 303 304 304 305 305 306 306 307 308 309 310 311 311 312 312 311 310 309 308 307 307 307 306 305 304 304 303 302 302 301 301 300 300 299 299 299 298
273 275 277 279 280 281 282 282 283 283 283 283 283 283 283 282 282 282 282 282 282 283 283 284 284 285 285 286 286 286 287 287 288 289 290 291 293 294 295 296 297 298 299 300 301 302 302 303 303 304 305 305 306 307 307 308 309 310 311 312 313 313 312 311 310 309 308 307 307 307 306 305 304 304 303 303 302 302 301 301 301 300 300 299 299
282 283 283 283 283 283 283 283 282 282 282 282 282 282 282 281 282 282 282 282 283 283 283 284 284 285 285 286 286 287 287 288 290 291 292 294 295 296 297 298 299 299 300 301 301 302 303 303 304 305 306 306 307 308 309 310 311 312 313 314 314 313 312 311 310 309 308 308 308 307 306 306 305 304 304 304 303 303 302 302 301 301 301 301 301
286 286 285 285 284 284 283 283 283 282 282 282 282 282 282 282 282 282 283 283 283 284 284 284 285 285 286 286 287 288 289 291 292 293 294 295 296 297 298 299 300 300 301 301 302 303 304 305 306 306 307 307 308 309 310 312 313 314 315 315 315 314 312 311 310 310 310 309 309 308 307 306 306 305 305 304 304 304 303 303 303 303 303 303 303
287 286 286 285 284 284 284 283 283 282 282 282 282 282 282 282 283 283 283 283 284 284 285 285 286 286 287 288 289 290 292 293 294 295 296 297 297 298 299 299 300 301 302 303 304 304 305 306 307 307 307 308 309 310 312 313 315 316 316 316 315 314 313 312 312 311 311 310 310 309 308 307 307 306 306 305 305 305 305 305 305 305 306 305 304
286 286 285 284 284 283 283 283 283 283 282 282 282 282 282 282 283 283 283 284 285 285 286 287 287 288 289 290 291 292 293 294 295 296 297 297 298 299 299 300 301 302 302 304 305 306 307 307 307 307 308 309 310 312 313 315 316 317 317 317 316 315 314 313 313 313 312 311 310 309 308 308 308 307 307 307 306 306 306 307 308 308 308 307 306
284 284 283 283 282 282 282 282 282 282 281 281 281 282 282 282 283 283 284 285 286 287 287 288 289 289 290 291 292 293 294 295 296 297 297 298 299 299 300 301 302 302 303 305 306 307 307 307 308 308 309 310 311 313 315 316 318 318 319 318 317 315 315 315 314 313 312 311 310 310 309 309 309 308 308 308 308 308 309 310 311 311 310 309 308
282 282 282 281 281 281 281 281 280 280 281 281 281 282 282 283 284 284 285 286 286 287 288 288 289 290 291 292 293 294 295 296 296 297 298 299 299 300 300 301 302 303 305 306 307 308 308 308 308 309 310 311 313 314 316 317 319 320 320 319 317 316 316 316 315 314 312 312 311 311 310 310 310 309 309 309 310 311 312 313 313 314 313 313 312
280 280 280 279 279 279 279 280 280 280 281 281 282 283 283 284 285 285 286 286 287 287 288 289 290 291 291 292 293 294 295 296 297 297 298 299 299 300 300 302 303 304 306 307 308 308 308 309 309 309 310 312 313 315 317 318 319 320 321 319 318 317 317 316 315 314 313 312 312 312 311 311 311 310 309 311 313 314 315 316 317 317 317 317 316
278 277 277 278 278 279 279 280 281 282 282 283 283 284 285 285 285 286 286 287 287 288 289 289 290 291 292 293 294 295 296 296 297 297 298 298 299 299 300 302 304 305 306 307 308 308 308 309 309 310 311 312 314 315 317 318 320 321 321 320 318 318 317 316 315 314 313 313 313 313 312 312 310 310 311 313 316 317 318 319 320 320 321 321 321
276 276 277 278 279 280 281 282 282 283 283 284 284 284 284 285 285 285 286 286 287 288 289 290 290 291 292 293 294 296 296 296 296 297 297 297 298 299 301 302 304 305 306 307 307 308 308 308 309 310 311 312 314 315 317 318 320 321 321 320 318 318 317 316 314 314 313 313 313 313 313 311 309 310 313 316 318 320 321 322 323 323 324 324 326
276 277 278 279 280 281 281 282 282 282 282 283 283 283 283 284 284 285 286 286 287 288 289 290 291 292 293 294 295 296 296 296 295 296 296 297 298 299 301 302 303 305 305 306 307 307 307 308 308 309 311 312 314 315 316 318 320 321 321 319 318 317 316 315 314 314 313 313 313 314 312 310 308 311 315 318 321 323 323 324 325 326 326 328 330
276 277 278 279 279 280 280 280 281 281 281 282 282 282 283 283 284 285 286 286 287 288 289 290 291 292 293 295 295 295 295 294 294 295 295 296 298 299 301 302 303 304 304 305 306 306 307 307 308 309 311 312 313 315 316 318 320 321 320 319 317 316 315 314 313 313 313 313 314 314 311 307 308 312 316 320 323 325 325 326 327 328 329 331 333
276 277 277 278 279 279 279 280 280 280 280 281 281 282 282 283 284 285 285 286 286 287 288 289 291 292 293 294 294 294 293 293 293 294 295 296 298 299 300 301 302 303 303 304 305 305 306 307 308 309 311 312 313 315 317 318 320 320 319 317 316 315 314 313 313 312 312 313 314 312 308 305 308 313 317 320 324 326 327 328 329 330 331 333 335
276 276 277 277 278 278 279 279 279 280 280 281 281 282 283 283 284 284 285 285 286 287 288 290 291 292 292 292 292 292 292 293 293 294 295 296 297 298 300 300 301 302 303 303 304 305 306 307 308 309 311 312 314 315 317 318 319 319 317 316 314 313 312 312 312 312 312 312 312 310 304 303 307 312 316 321 325 328 330 331 333 334 334 334 336
275 276 277 277 277 278 278 279 279 280 280 281 281 282 282 283 283 283 284 284 285 287 288 290 291 291 291 292 292 292 293 293 294 295 295 296 297 298 299 300 300 301 302 303 304 305 306 307 308 310 311 312 314 316 317 318 318 317 316 314 312 311 310 311 311 311 311 311 311 306 300 300 306 311 315 320 324 328 331 334 336 337 337 338 339
276 276 277 277 278 278 278 279 279 280 281 281 282 282 282 282 282 283 283 284 285 287 289 290 290 291 291 291 292 292 293 294 294 295 296 296 297 298 298 299 300 301 302 303 304 304 305 307 308 310 311 313 314 316 317 317 317 315 314 312 310 309 308 309 310 310 309 309 308 302 296 298 304 309 313 317 322 325 329 333 335 336 337 338 340
277 277 277 278 278 278 279 279 280 280 281 281 281 281 281 281 281 282 283 284 285 287 289 289 290 290 290 291 292 293 294 295 295 295 295 296 296 297 298 299 300 301 302 303 304 305 306 307 309 310 312 313 314 315 316 316 315 313 311 309 308 306 306 307 308 309 308 308 305 298 292 294 301 305 308 313 317 320 324 328 330 331 333 334 336
278 278 278 278 279 279 279 280 280 280 281 281 280 280 280 280 281 281 282 283 285 287 288 289 289 289 290 291 292 294 294 295 295 295 295 295 296 297 298 299 300 301 302 303 304 305 307 308 309 310 311 313 314 314 315 314 312 311 309 307 305 304 303 304 306 307 307 305 302 295 288 290 296 300 303 306 310 315 319 322 325 326 328 330 332
279 279 279 279 279 280 280 280 280 280 280 280 279 279 279 280 280 281 282 283 285 287 288 289 289 290 291 292 293 294 294 294 294 294 294 295 296 296 298 299 300 301 302 303 304 306 307 308 309 310 311 312 313 313 312 311 309 308 306 304 302 301 301 302 304 305 305 303 299 291 285 286 292 295 297 300 303 307 312 316 319 322 324 326 328
279 279 279 280 280 280 280 281 280 280 280 279 279 279 279 280 281 281 282 284 286 288 289 290 291 291 292 293 293 294 294 294 294 294 294 295 296 297 298 299 300 301 302 303 304 305 307 308 308 309 310 311 311 311 310 308 306 305 303 301 300 298 298 299 301 303 303 301 296 287 281 282 287 290 292 293 296 299 304 308 311 315 318 320 322
Height
5772 5771 5770 5769 5768 5767 5766 5765 5763 5763 5762 5761 5760 5758 5757 5756 5754 5752 5751 5750 5749 5747 5746 5745 5744 5742 5741 5740 5739 5737 5736 5735 5733 5732 5730 5729 5727 5725 5723 5721 5719 5717 5715 5712 5709 5707 5704 5702 5699 5696 5693 5690 5686 5683 5680 5676 5673 5670 5667 5664 5661 5657 5652 5647 5641 5636 5631 5626 5621 5618 5615 5611 5607 5604 5599 5595 5592 5588 5584 5579 5575 5571 5565 5560 5556
5766 5765 5764 5763 5763 5761 5760 5759 5758 5757 5756 5755 5754 5752 5751 5750 5748 5747 5746 5744 5743 5742 5740 5739 5738 5736 5735 5734 5733 5732 5730 5729 5727 5726 5724 5723 5721 5719 5717 5715 5713 5710 5708 5705 5702 5699 5697 5694 5691 5688 5685 5682 5678 5675 5672 5668 5665 5662 5659 5656 5652 5649 5644 5639 5634 5629 5624 5619 5613 5609 5607 5603 5598 5594 5590 5586 5582 5579 5575 5570 5566 5561 5556 5551 5546
5760 5759 5758 5757 5757 5756 5754 5753 5752 5751 5750 5750 5748 5746 5745 5743 5742 5741 5740 5738 5737 5736 5735 5733 5732 5731 5729 5728 5727 5725 5724 5723 5721 5720 5718 5716 5714 5712 5710 5708 5706 5703 5700 5697 5694 5691 5689 5687 5684 5681 5678 5674 5671 5668 5664 5660 5656 5653 5650 5647 5644 5640 5636 5631 5626 5622 5617 5612 5606 5601 5597 5594 5590 5585 5581 5577 5572 5569 5565 5561 5557 5552 5547 5541 5536
5754 5753 5752 5751 5751 5750 5749 5748 5747 5746 5745 5743 5742 5740 5739 5737 5736 5735 5734 5732 5731 5730 5729 5727 5726 5725 5723 5721 5720 5719 5718 5716 5715 5713 5711 5709 5707 5705 5703 5701 5698 5695 5692 5689 5686 5684 5682 5679 5676 5673 5670 5667 5663 5660 5656 5652 5648 5644 5641 5638 5635 5632 5627 5623 5618 5614 5610 5605 5599 5593 5588 5584 5581 5577 5572 5568 5564 5560 5556 5552 5548 5543 5538 5533 5528
5748 5747 5746 5745 5745 5744 5743 5742 5741 5739 5738 5737 5736 5734 5733 5731 5730 5729 5728 5726 5725 5724 5722 5721 5719 5718 5717 5715 5714 5712 5711 5710 5708 5706 5704 5702 5700 5698 5696 5693 5690 5687 5684 5682 5680 5677 5674 5671 5668 5666 5662 5659 5655 5651 5647 5643 5639 5636 5633 5629 5627 5623 5619 5614 5610 5606 5602 5598 5592 5587 5581 5576 5573 5569 5563 5558 5554 5551 5547 5543 5539 5535 5530 5524 5519
5742 5741 5740 5739 5738 5737 5736 5735 5734 5733 5731 5730 5729 5728 5726 5725 5724 5722 5721 5720 5718 5717 5716 5714 5713 5712 5710 5708 5707 5706 5705 5703 5701 5699 5697 5696 5694 5691 5689 5686 5683 5680 5678 5675 5672 5669 5667 5664 5661 5658 5654 5650 5646 5643 5638 5634 5631 5628 5624 5621 5618 5614 5609 5605 5601 5597 5593 5590 5585 5580 5575 5570 5566 5561 5555 5549 5545 5542 5538 5535 5532 5527 5522 5517 5511
5735 5734 5733 5732 5731 5730 5729 5728 5727 5726 5725 5723 5722 5721 5720 5718 5717 5716 5715 5713 5712 5711 5709 5708 5706 5705 5703 5702 5701 5699 5698 5696 5695 5693 5691 5689 5687 5684 5682 5679 5676 5673 5670 5667 5664 5662 5659 5656 5653 5649 5646 5642 5638 5634 5630 5626 5623 5619 5616 5612 5608 5604 5600 5596 5592 5588 5584 5581 5577 5573 5568 5563 5558 5552 5547 5541 5537 5533 5529 5526 5523 5518 5513 5509 5504
5728 5727 5726 5725 5724 5723 5722 5721 5720 5719 5718 5716 5715 5714 5713 5712 5710 5709 5708 5707 5705 5704 5703 5701 5700 5698 5697 5695 5694 5693 5691 5689 5688 5686 5684 5682 5680 5678 5675 5672 5669 5666 5662 5659 5657 5654 5650 5647 5644 5641 5638 5634 5630 5626 5622 5618 5614 5611 5607 5603 5598 5594 5591 5587 5583 5579 5575 5572 5569 5565 5561 5557 5551 5544 5538 5533 5528 5524 5520 5516 5514 5510 5503 5499 5494
5720 5719 5718 5717 5716 5715 5714 5713 5713 5712 5711 5710 5709 5707 5706 5705 5704 5702 5701 5700 5699 5697 5696 5695 5693 5692 5690 5689 5687 5685 5684 5683 5681 5679 5677 5675 5673 5671 5668 5665 5662 5658 5655 5652 5649 5645 5642 5639 5637 5633 5629 5625 5621 5617 5613 5609 5606 5602 5598 5593 5589 5585 5581 5577 5573 5569 5565 5563 5561 5557 5553 5550 5543 5535 5530 5525 5518 5514 5510 5506 5504 5500 5493 5488 5485
5713 5712 5711 5710 5709 5709 5708 5707 5706 5705 5704 5703 5702 5701 5700 5698 5697 5696 5694 5693 5692 5691 5690 5688 5687 5685 5683 5682 5680 5678 5677 5675 5673 5672 5670 5668 5665 5663 5660 5657 5654 5651 5648 5644 5641 5638 5635 5632 5629 5625 5620 5616 5612 5608 5604 5600 5597 5593 5589 5585 5581 5576 5572 5568 5564 5559 5556 5554 5552 5548 5544 5541 5535 5527 5522 5516 5509 5505 5501 5496 5492 5487 5481 5478 5475
5706 5705 5704 5704 5703 5702 5701 5700 5699 5698 5697 5697 5696 5694 5693 5691 5690 5689 5688 5687 5685 5684 5683 5682 5680 5678 5676 5675 5673 5671 5670 5668 5666 5664 5662 5660 5657 5655 5652 5649 5646 5644 5641 5637 5634 5631 5627 5624 5621 5616 5611 5606 5603 5599 5596 5592 5588 5584 5580 5576 5573 5568 5564 5559 5555 5550 5546 5544 5542 5538 5534 5531 5526 5518 5512 5507 5501 5496 5492 5486 5479 5475 5470 5466 5464
5699 5698 5698 5697 5696 5696 5695 5694 5693 5692 5691 5690 5689 5687 5686 5685 5684 5682 5681 5680 5679 5677 5676 5675 5673 5671 5670 5668 5666 5664 5663 5661 5659 5657 5654 5652 5650 5647 5644 5642 5639 5636 5633 5630 5626 5623 5620 5616 5612 5607 5602 5598 5594 5590 5586 5582 5578 5574 5571 5568 5564 5561 5556 5551 5546 5541 5537 5534 5533 5530 5524 5519 5515 5511 5504 5497 5492 5486 5480 5475 5469 5465 5460 5456 5453
5693 5692 5691 5690 5689 5689 5688 5687 5686 5685 5684 5683 5682 5681 5679 5678 5677 5676 5674 5673 5672 5670 5669 5668 5666 5665 5663 5661 5659 5657 5655 5653 5651 5649 5647 5644 5642 5640 5637 5634 5631 5629 5626 5622 5619 5615 5612 5607 5603 5598 5594 5588 5584 5580 5576 5572 5568 5565 5562 5559 5557 5553 5549 5544 5538 5532 5527 5524 5522 5521 5516 5508 5504 5503 5496 5487 5482 5475 5468 5464 5459 5454 5450 5447 5444
5686 5685 5684 5683 5682 5682 5681 5680 5679 5678 5677 5676 5675 5674 5673 5671 5670 5669 5667 5666 5665 5664 5662 5661 5659 5658 5656 5654 5652 5650 5648 5645 5644 5642 5639 5637 5634 5632 5629 5626 5623 5621 5618 5615 5611 5607 5603 5598 5593 5589 5585 5579 5575 5570 5565 5562 5558 5556 5553 5551 5549 5546 5542 5537 5531 5523 5518 5514 5511 5510 5507 5500 5494 5491 5485 5476 5471 5465 5458 5454 5449 5444 5440 5436 5433
5678 5677 5676 5676 5675 5675 5674 5673 5672 5671 5670 5669 5667 5666 5665 5664 5663 5662 5660 5659 5658 5657 5655 5654 5652 5650 5649 5647 5645 5643 5641 5638 5636 5634 5631 5629 5626 5623 5620 5618 5616 5613 5610 5607 5603 5598 5593 5589 5584 5580 5576 5571 5566 5560 5555 5552 5549 5547 5545 5543 5541 5538 5534 5529 5522 5516 5510 5506 5502 5500 5498 5491 5483 5478 5472 5465 5460 5456 5449 5444 5440 5435 5430 5426 5423
5671 5670 5669 5669 5668 5667 5667 5665 5664 5663 5662 5661 5660 5659 5658 5657 5656 5655 5653 5652 5651 5650 5648 5647 5645 5643 5641 5639 5637 5635 5633 5630 5628 5625 5622 5620 5617 5615 5613 5611 5609 5606 5602 5598 5593 5589 5584 5579 5575 5571 5568 5563 5557 5552 5547 5543 5541 5539 5537 5535 5532 5529 5526 5519 5511 5506 5501 5497 5494 5491 5486 5481 5474 5467 5463 5457 5450 5445 5439 5436 5433 5426 5419 5416 5413
5663 5662 5662 5661 5660 5660 5659 5658 5657 5656 5655 5654 5653 5652 5651 5650 5649 5647 5646 5645 5644 5643 5641 5639 5637 5635 5633 5631 5629 5626 5623 5621 5619 5616 5613 5611 5609 5607 5605 5604 5602 5598 5593 5588 5584 5579 5575 5570 5566 5562 5559 5554 5549 5544 5539 5536 5534 5532 5528 5526 5523 5520 5516 5509 5501 5496 5491 5485 5482 5478 5473 5469 5464 5458 5454 5448 5441 5433 5426 5425 5425 5417 5408 5406 5403
5656 5655 5654 5653 5653 5652 5651 5650 5649 5648 5647 5647 5645 5645 5644 5642 5641 5640 5639 5638 5637 5635 5633 5631 5629 5627 5625 5623 5621 5618 5615 5613 5611 5607 5604 5602 5601 5599 5597 5595 5592 5588 5583 5579 5575 5571 5566 5561 5557 5553 5550 5546 5541 5536 5532 5528 5526 5523 5519 5515 5513 5510 5505 5498 5491 5487 5481 5474 5470 5466 5461 5458 5453 5447 5443 5438 5431 5423 5413 5408 5408 5402 5396 5394 5390
5649 5648 5647 5646 5645 5644 5644 5643 5642 5641 5640 5639 5638 5637 5636 5635 5634 5632 5631 5630 5629 5627 5625 5623 5621 5619 5617 5614 5612 5609 5606 5604 5602 5599 5596 5594 5592 5590 5588 5585 5582 5578 5574 5570 5566 5562 5557 5553 5548 5544 5541 5537 5533 5529 5525 5520 5517 5514 5509 5504 5502 5499 5493 5486 5481 5477 5471 5466 5462 5457 5452 5448 5442 5437 5434 5428 5422 5415 5405 5397 5393 5386 5380 5379 5376
5642 5641 5640 5639 5638 5637 5637 5636 5635 5634 5633 5632 5631 5630 5629 5627 5626 5624 5623 5622 5620 5618 5617 5615 5613 5611 5608 5606 5603 5600 5597 5595 5593 5590 5588 5586 5583 5581 5578 5575 5572 5569 5565 5561 5558 5553 5549 5544 5540 5536 5532 5530 5526 5522 5517 5511 5507 5503 5499 5493 5489 5486 5480 5474 5470 5465 5460 5457 5453 5448 5445 5441 5435 5429 5424 5419 5414 5407 5398 5390 5384 5377 5369 5365 5362
5635 5634 5633 5632 5631 5631 5630 5629 5628 5627 5626 5625 5624 5622 5621 5619 5618 5616 5615 5613 5612 5610 5608 5606 5604 5602 5599 5597 5594 5592 5589 5586 5584 5582 5579 5577 5574 5572 5569 5566 5562 5559 5556 5553 5549 5545 5541 5536 5532 5529 5525 5521 5517 5512 5507 5501 5496 5492 5487 5482 5477 5472 5467 5464 5460 5455 5450 5446 5443 5439 5435 5431 5426 5420 5415 5410 5405 5398 5391 5383 5377 5370 5363 5356 5351
5628 5627 5626 5625 5624 5623 5623 5622 5621 5620 5619 5617 5616 5614 5613 5611 5610 5608 5607 5605 5603 5601 5599 5597 5595 5593 5590 5588 5585 5583 5580 5578 5575 5573 5571 5568 5565 5563 5560 5557 5553 5551 5548 5545 5540 5537 5533 5529 5525 5521 5517 5512 5506 5501 5495 5490 5484 5480 5476 5471 5467 5462 5457 5453 5450 5445 5440 5436 5432 5429 5425 5419 5414 5410 5405 5399 5394 5389 5382 5375 5368 5362 5356 5350 5343
5621 5620 5619 5618 5617 5616 5615 5614 5613 5612 5611 5609 5608 5606 5604 5603 5601 5600 5598 5596 5594 5592 5590 5588 5586 5583 5581 5579 5577 5574 5572 5570 5567 5565 5562 5560 5557 5554 5551 5548 5545 5542 5540 5536 5532 5529 5525 5521 5516 5512 5506 5501 5496 5491 5485 5480 5475 5470 5466 5461 5457 5452 5447 5443 5439 5435 5430 5426 5421 5417 5413 5408 5402 5397 5393 5388 5383 5377 5372 5366 5359 5353 5347 5342 5336
5613 5612 5611 5610 5609 5608 5607 5606 5605 5603 5602 5601 5599 5597 5596 5594 5593 5591 5589 5587 5585 5583 5581 5579 5577 5575 5572 5570 5568 5566 5564 5561 5559 5556 5553 5551 5548 5545 5543 5540 5537 5534 5531 5528 5524 5519 5515 5511 5506 5501 5496 5491 5487 5482 5477 5472 5467 5462 5457 5452 5447 5443 5438 5432 5428 5424 5419 5415 5410 5404 5400 5395 5389 5383 5380 5375 5370 5365 5360 5354 5349 5343 5337 5332 5327
5603 5603 5602 5601 5600 5599 5598 5597 5595 5594 5593 5591 5590 5588 5587 5585 5584 5582 5580 5578 5575 5573 5571 5569 5568 5566 5563 5561 5559 5557 5554 5552 5549 5547 5545 5542 5540 5537 5534 5531 5528 5525 5521 5517 5513 5509 5505 5501 5496 5491 5487 5483 5478 5474 5469 5464 5459 5454 5448 5443 5438 5433 5428 5423 5417 5413 5408 5404 5399 5393 5388 5382 5375 5370 5366 5361 5356 5352 5347 5342 5337 5333 5327 5322 5317
5594 5594 5593 5592 5591 5590 5589 5588 5586 5585 5584 5582 5581 5579 5578 5576 5574 5572 5571 5568 5566 5564 5562 5559 5558 5556 5554 5552 5550 5547 5545 5543 5541 5539 5537 5534 5531 5528 5525 5522 5519 5515 5511 5508 5504 5500 5496 5492 5487 5483 5479 5475 5470 5465 5460 5455 5450 5445 5439 5434 5429 5424 5418 5413 5407 5402 5397 5392 5387 5381 5376 5370 5364 5359 5354 5349 5345 5340 5335 5330 5326 5322 5317 5311 5306
5585 5585 5584 5583 5582 5581 5580 5578 5577 5576 5574 5573 5572 5570 5569 5567 5565 5563 5561 5559 5557 5554 5552 5550 5549 5547 5545 5543 5541 5539 5537 5535 5533 5530 5527 5525 5522 5519 5516 5513 5509 5505 5501 5498 5494 5491 5487 5483 5478 5474 5470 5465 5460 5455 5451 5446 5441 5436 5430 5425 5420 5415 5409 5404 5398 5392 5386 5380 5375 5369 5364 5358 5353 5348 5343 5338 5334 5329 5324 5319 5314 5310 5305 5299 5294
5575 5574 5573 5573 5572 5571 5570 5569 5568 5567 5565 5564 5563 5561 5559 5558 5556 5554 5552 5550 5548 5546 5544 5542 5540 5538 5536 5534 5532 5530 5528 5526 5524 5521 5518 5515 5512 5509 5506 5503 5499 5496 5492 5488 5485 5481 5477 5473 5468 5464 5460 5455 5451 5446 5441 5436 5431 5426 5421 5415 5410 5405 5400 5394 5388 5381 5375 5368 5362 5357 5352 5346 5341 5337 5332 5327 5322 5317 5312 5307 5301 5297 5292 5286 5282
5565 5565 5564 5563 5562 5561 5560 5559 5558 5558 5556 5555 5554 5552 5550 5549 5547 5545 5543 5541 5539 5537 5535 5533 5531 5529 5527 5525 5523 5521 5519 5516 5514 5512 5509 5506 5503 5500 5497 5493 5489 5486 5482 5478 5475 5471 5467 5463 5458 5454 5450 5446 5442 5437 5432 5427 5421 5415 5410 5405 5399 5394 5388 5382 5376 5370 5364 5357 5351 5345 5340 5335 5330 5324 5320 5315 5311 5305 5299 5294 5289 5284 5279 5274 5269
5556 5555 5554 5554 5553 5552 5552 5551 5550 5549 5547 5546 5545 5543 5541 5540 5538 5536 5534 5532 5531 5529 5527 5525 5523 5521 5519 5516 5514 5512 5510 5507 5504 5502 5499 5496 5493 5490 5487 5483 5479 5475 5471 5468 5465 5461 5457 5453 5449 5446 5442 5437 5433 5429 5423 5418 5412 5406 5400 5395 5389 5384 5378 5371 5365 5359 5353 5347 5341 5336 5330 5325 5320 5314 5309 5305 5300 5295 5290 5284 5279 5273 5268 5263 5258
5547 5546 5546 5545 5544 5544 5543 5542 5541 5540 5538 5537 5536 5534 5533 5531 5529 5528 5526 5524 5522 5520 5518 5516 5514 5512 5510 5508 5505 5503 5500 5497 5495 5492 5489 5487 5484 5481 5477 5473 5469 5465 5461 5458 5456 5452 5448 5445 5441 5438 5434 5429 5425 5420 5415 5409 5403 5397 5391 5386 5380 5374 5369 5362 5355 5350 5344 5338 5332 5327 5321 5315 5310 5305 5300 5294 5290 5285 5280 5274 5269 5264 5258 5252 5248
5539 5538 5538 5537 5536 5536 5535 5533 5533 5531 5530 5529 5527 5526 5524 5522 5520 5519 5517 5515 5513 5511 5510 5507 5505 5503 5501 5499 5496 5493 5490 5488 5485 5482 5479 5476 5474 5471 5467 5464 5460 5456 5453 5450 5447 5444 5440 5437 5433 5429 5425 5420 5416 5411 5406 5400 5394 5388 5382 5376 5370 5365 5359 5352 5346 5340 5334 5329 5323 5317 5311 5305 5300 5294 5289 5283 5279 5274 5268 5263 5258 5253 5248 5242 5237
5530 5530 5529 5529 5528 5527 5526 5525 5524 5522 5521 5520 5519 5517 5515 5513 5512 5510 5508 5506 5505 5503 5501 5499 5496 5494 5492 5489 5487 5484 5481 5478 5475 5472 5469 5467 5464 5461 5458 5455 5451 5448 5445 5442 5439 5435 5432 5428 5424 5420 5415 5411 5406 5401 5396 5391 5385 5378 5372 5366 5360 5355 5349 5343 5337 5331 5325 5319 5313 5307 5301 5295 5289 5284 5278 5272 5267 5262 5258 5252 5246 5241 5237 5232 5226
5522 5521 5520 5520 5519 5518 5517 5516 5515 5514 5512 5511 5509 5508 5506 5504 5503 5501 5499 5497 5495 5493 5491 5489 5487 5485 5482 5480 5477 5474 5471 5468 5465 5463 5460 5458 5455 5452 5450 5447 5443 5439 5436 5433 5430 5426 5422 5418 5414 5410 5406 5401 5397 5392 5387 5381 5375 5369 5362 5356 5350 5344 5339 5333 5327 5321 5315 5309 5303 5297 5291 5285 5279 5274 5268 5263 5257 5252 5247 5241 5236 5231 5227 5222 5217
5513 5512 5512 5511 5510 5509 5508 5507 5506 5505 5503 5502 5500 5499 5497 5496 5494 5492 5490 5488 5486 5484 5482 5479 5477 5475 5472 5470 5467 5465 5462 5459 5457 5454 5452 5449 5446 5443 5441 5438 5435 5431 5428 5424 5420 5417 5413 5409 5405 5401 5397 5392 5387 5382 5377 5371 5365 5359 5353 5347 5341 5335 5329 5323 5317 5310 5304 5299 5293 5287 5281 5275 5269 5264 5259 5253 5247 5242 5237 5232 5227 5223 5218 5213 5208
5505 5504 5504 5503 5502 5501 5499 5498 5497 5496 5494 5493 5492 5490 5489 5487 5485 5484 5482 5479 5477 5474 5472 5469 5467 5464 5462 5460 5458 5456 5453 5451 5448 5446 5443 5440 5438 5435 5432 5429 5426 5423 5419 5416 5412 5408 5404 5401 5397 5392 5388 5383 5378 5373 5368 5362 5356 5350 5344 5338 5331 5325 5319 5313 5307 5301 5295 5289 5283 5277 5272 5266 5260 5255 5250 5244 5239 5234 5229 5225 5220 5215 5210 5205 5199
5497 5496 5495 5494 5493 5492 5491 5489 5488 5487 5486 5485 5483 5482 5480 5479 5477 5474 5472 5470 5467 5465 5462 5460 5458 5455 5453 5451 5450 5447 5445 5443 5440 5437 5434 5432 5429 5426 5423 5420 5417 5414 5411 5407 5404 5400 5396 5392 5388 5383 5379 5374 5369 5364 5358 5353 5347 5341 5334 5328 5322 5316 5311 5304 5298 5292 5286 5280 5274 5269 5263 5258 5252 5247 5242 5237 5232 5227 5222 5218 5213 5208 5202 5197 5191
5488 5487 5486 5485 5484 5483 5482 5481 5480 5479 5478 5476 5475 5473 5471 5469 5467 5465 5462 5460 5458 5456 5453 5451 5449 5447 5445 5443 5441 5439 5437 5435 5432 5429 5426 5423 5420 5417 5415 5411 5408 5405 5402 5399 5395 5391 5387 5383 5379 5374 5370 5365 5360 5355 5350 5344 5338 5331 5325 5319 5313 5308 5302 5295 5289 5283 5277 5272 5266 5261 5255 5250 5245 5240 5235 5230 5226 5222 5217 5212 5206 5201 5195 5190 5184
5479 5479 5478 5476 5476 5475 5473 5472 5471 5470 5469 5467 5465 5463 5461 5459 5457 5455 5453 5451 5449 5447 5445 5443 5441 5439 5437 5435 5433 5431 5429 5426 5423 5421 5418 5415 5412 5409 5406 5403 5400 5397 5394 5390 5386 5382 5378 5374 5370 5365 5361 5356 5351 5346 5341 5335 5328 5322 5316 5310 5304 5299 5293 5286 5280 5274 5269 5263 5258 5253 5248 5243 5238 5233 5229 5226 5221 5217 5212 5206 5201 5195 5190 5184 5178
5472 5471 5469 5468 5467 5466 5464 5463 5462 5460 5459 5457 5455 5453 5451 5449 5447 5445 5444 5442 5440 5438 5437 5435 5433 5430 5429 5426 5424 5423 5421 5418 5415 5412 5409 5406 5404 5401 5398 5395 5392 5388 5385 5381 5377 5373 5369 5365 5361 5357 5352 5348 5343 5337 5332 5326 5320 5314 5308 5301 5295 5289 5284 5278 5272 5266 5261 5256 5251 5246 5241 5237 5232 5228 5225 5221 5217 5213 5207 5202 5196 5190 5185 5180 5175
5463 5462 5461 5460 5458 5456 5455 5454 5452 5450 5449 5447 5445 5444 5442 5440 5439 5437 5435 5434 5432 5430 5428 5427 5424 5422 5420 5418 5416 5414 5412 5409 5406 5404 5401 5398 5396 5393 5390 5387 5383 5380 5376 5372 5368 5365 5361 5357 5352 5348 5343 5339 5334 5328 5323 5317 5311 5305 5299 5292 5287 5281 5275 5269 5264 5259 5254 5249 5245 5240 5236 5231 5227 5224 5221 5218 5214 5209 5204 5198 5193 5187 5182 5178 5173
5454 5453 5452 5450 5448 5447 5446 5444 5442 5441 5439 5438 5437 5435 5433 5432 5431 5429 5427 5426 5424 5422 5420 5418 5416 5414 5411 5409 5407 5405 5403 5400 5398 5395 5393 5390 5387 5384 5381 5378 5374 5371 5367 5363 5360 5356 5352 5348 5344 5339 5334 5330 5325 5320 5314 5309 5302 5296 5289 5283 5278 5272 5267 5261 5256 5252 5247 5243 5239 5235 5231 5227 5224 5220 5217 5214 5210 5205 5200 5195 5190 5185 5181 5176 5172
5445 5444 5442 5441 5439 5438 5437 5435 5434 5432 5431 5430 5429 5427 5426 5424 5423 5421 5419 5418 5416 5414 5412 5410 5407 5405 5403 5400 5398 5396 5394 5392 5389 5386 5384 5381 5378 5375 5372 5369 5365 5362 5358 5354 5351 5346 5342 5339 5334 5330 5326 5321 5316 5311 5306 5300 5294 5287 5280 5274 5269 5264 5259 5254 5250 5245 5241 5238 5234 5230 5226 5223 5220 5217 5214 5211 5207 5202 5198 5193 5188 5184 5180 5176 5172
5436 5435 5433 5432 5431 5429 5428 5427 5426 5424 5423 5422 5421 5419 5418 5416 5414 5413 5411 5409 5407 5406 5404 5401 5399 5397 5394 5392 5389 5387 5384 5382 5380 5377 5375 5372 5369 5366 5363 5360 5356 5353 5349 5345 5341 5337 5333 5329 5325 5320 5316 5312 5307 5302 5297 5291 5285 5278 5272 5265 5260 5255 5251 5247 5243 5239 5236 5232 5229 5225 5222 5220 5217 5214 5211 5208 5204 5200 5196 5191 5187 5183 5179 5176 5172
5427 5426 5425 5424 5422 5421 5420 5419 5418 5417 5416 5414 5413 5411 5410 5408 5406 5404 5403 5401 5399 5397 5395 5393 5391 5388 5386 5383 5381 5378 5376 5373 5370 5368 5365 5363 5360 5357 5354 5350 5347 5343 5340 5336 5332 5328 5324 5320 5315 5311 5307 5302 5298 5293 5288 5282 5277 5270 5264 5258 5252 5248 5244 5241 5237 5234 5231 5227 5224 5221 5219 5216 5214 5211 5208 5205 5202 5198 5194 5190 5186 5183 5179 5176 5173
5419 5418 5417 5416 5415 5414 5412 5411 5410 5409 5407 5406 5404 5403 5401 5399 5397 5396 5394 5392 5390 5388 5386 5384 5382 5380 5377 5375 5372 5370 5367 5364 5361 5359 5356 5353 5351 5348 5345 5341 5337 5334 5330 5327 5323 5319 5315 5311 5306 5301 5297 5293 5288 5284 5279 5274 5268 5262 5256 5251 5245 5241 5238 5235 5231 5229 5226 5223 5220 5217 5215 5213 5211 5208 5206 5203 5200 5196 5193 5189 5186 5182 5179 5176 5173
5412 5411 5409 5408 5407 5406 5405 5403 5402 5400 5399 5397 5396 5394 5392 5391 5389 5387 5385 5384 5382 5380 5378 5376 5373 5371 5369 5366 5364 5361 5359 5355 5352 5350 5347 5344 5341 5338 5335 5332 5328 5324 5321 5317 5313 5310 5306 5302 5297 5292 5288 5283 5279 5275 5270 5265 5260 5254 5249 5244 5239 5235 5232 5229 5226 5223 5221 5218 5216 5214 5211 5210 5208 5205 5203 5201 5198 5195 5192 5189 5186 5183 5180 5177 5174
5404 5403 5402 5400 5399 5398 5396 5395 5393 5392 5390 5389 5387 5386 5384 5382 5381 5379 5377 5375 5373 5371 5369 5367 5365 5362 5360 5357 5355 5352 5349 5346 5343 5340 5337 5334 5331 5328 5325 5322 5318 5314 5310 5307 5303 5300 5296 5292 5288 5283 5278 5274 5269 5265 5261 5256 5252 5247 5242 5237 5233 5229 5226 5223 5221 5218 5216 5214 5211 5210 5208 5206 5204 5202 5200 5198 5196 5193 5191 5188 5185 5183 5180 5177 5175
5396 5395 5393 5392 5391 5389 5388 5386 5385 5383 5382 5380 5379 5377 5376 5374 5372 5370 5368 5366 5364 5362 5360 5358 5356 5353 5351 5348 5346 5343 5340 5337 5333 5330 5327 5324 5321 5318 5315 5311 5307 5304 5300 5296 5293 5289 5286 5282 5278 5274 5269 5265 5260 5256 5252 5247 5243 5239 5235 5231 5227 5224 5221 5218 5216 5214 5211 5209 5207 5205 5204 5203 5201 5199 5197 5196 5194 5191 5189 5187 5184 5182 5180 5177 5175
5388 5386 5385 5384 5382 5381 5379 5378 5376 5375 5373 5372 5370 5369 5367 5365 5363 5362 5360 5357 5355 5353 5351 5349 5346 5344 5341 5339 5336 5333 5330 5327 5323 5320 5317 5314 5311 5308 5305 5301 5297 5294 5290 5286 5282 5279 5275 5271 5268 5264 5259 5255 5251 5247 5243 5239 5234 5230 5227 5224 5221 5218 5215 5213 5211 5209 5206 5204 5203 5201 5200 5199 5197 5196 5194 5193 5191 5189 5187 5185 5183 5181 5179 5177 5175
5379 5378 5377 5375 5374 5372 5371 5369 5368 5366 5365 5363 5362 5360 5358 5357 5355 5353 5351 5348 5346 5344 5342 5339 5337 5334 5331 5328 5326 5323 5320 5316 5313 5310 5307 5303 5300 5297 5294 5290 5287 5283 5280 5276 5272 5268 5265 5261 5257 5254 5250 5246 5242 5238 5234 5230 5226 5222 5219 5217 5214 5212 5209 5207 5205 5204 5202 5200 5198 5197 5196 5195 5193 5192 5191 5190 5188 5187 5185 5184 5182 5180 5178 5177 5175